ONEWEB-0336 (49202 NORAD) Tracking and Keplerian Element Data

This shows tracking and keplerian element data for the satellite.

Feedback or suggestion? Click here.




ElementValue
Catalog49202
NameONEWEB-0336
Epoch Orbit775
Epoch Day300.58334491
Epoch Year2021
RAAN313.0943
Inclination87.1992
Eccentricity0.002068
Argument of Perigee134.0248
Mean Anonmoly180.9866
Mean Motion14.8709085
Decay Rate-0.0002822
L11 49202U 21083S 21300.58334491 -.00028220 00000-0 -31528-2 0 9991
L22 49202 87.1992 313.0943 0020680 134.0248 180.9866 14.87090850 7755

Live tracking and technical data element details for ONEWEB-0336 (NORAD 49202). ONEWEB-0336 can be tracked NOW for your location showing map with azimuth and elevation plus other details from your city location.

Track the satellite on the map from your city or location and see movement details for azimuth, elevation, latitude, longitude, range, height, and movement on the map or in text.







IsCatalogInMostPopularTable: catalog: 49202, numindb: 13
Update: records affected: 1



GetName: 49202 ONEWEB-0336

Hit Count: updated at: Thu, 28 Oct 2021 10:50:50 GMT